User: anonymous
Location: Bishop's University Astronomical Observatory
(45.3661°N, 71.8475°W)
Time: 11:51:02
(UTC-04:00)
Language:

Meteor 2-5 Rocket - Orbit

View from above orbital plane
View from above orbital plane
View from above satellite
View from above satellite

Ground track
Ground track

The orbit data is extracted from the following two-line orbital elements,

1 11608U 79095B   14272.09617413 -.00000055  00000-0 -41015-4 0  6605
2 11608 081.2112 093.6734 0055699 070.3688 068.8947 14.06019793790661
Epoch (UTC): 29 September 2014 02:18:29
Eccentricity: 0.0055699
inclination: 81.2112°
perigee height: 832 km
apogee height: 913 km
right ascension of ascending node: 93.6734°
argument of perigee: 70.3688°
revolutions per day: 14.06019793
mean anomaly at epoch: 68.8947°
orbit number at epoch: 79066

The dashed part of the orbit path shows where the satellite is in the earth's shadow,  

DLR